Location: Peebles
(55.6412°N, 3.1714°W)
Time: 06:26:40
(UTC+01:00)

NOAA 16 DEB - Pass Details

Date: 08 July 2022
Orbit: 836 x 886 km, 98.9° (Epoch: 10 August)

Event Time Altitude Azimuth Distance (km) Brightness Sun altitude
Exits shadow 00:29:09 - 215° (SW) 3,099 ? -11.2°
Reaches altitude 10° 00:31:22 10° 229° (SW) 2,450 ? -11.2°
Maximum altitude 00:35:06 19° 273° (W) 1,917 ? -11.3°
Drops below altitude 10° 00:38:52 10° 317° (NW) 2,469 ? -11.4°
Sets 00:42:01 0° 336° (NNW) 3,416 ? -11.5°
